Ardmore, OK

4:51 PM CDT on March 24, 2017 (GMT -0500)
Ardmore Municipal

Weather History for KADM - March, 2014

Change the Weather History Date:

Thursday, March 27, 2014

  Actual Average Record
Temperature  
Mean Temperature 68 °F -  
Max Temperature 82 °F 65 °F 84 °F (2008)
Min Temperature 53 °F 47 °F 33 °F (2009)
Cooling Degree Days 2    
Growing Degree Days 18 (Base 50)    
Moisture  
Dew Point 53 °F    
Average Humidity 76    
Maximum Humidity 100    
Minimum Humidity 25    
Precipitation  
Precipitation 0.00 in - - ()
Sea Level Pressure  
Sea Level Pressure 29.74 in    
Wind  
Wind Speed 13 mph (South)    
Max Wind Speed 23 mph    
Max Gust Speed 31 mph    
Visibility 10 miles    
Events      
Averages and records for this station are not official NWS values.
T = Trace of Precipitation, MM = Missing Value Source: NWS Daily Summary

Daily Weather History Graph

Daily Weather History Graph

Search for Another Location

Airport or City:

Trip Planner

Search our weather history database for the weather conditions in past years. The results will help you decide how hot, cold, wet, or windy it might be!

Date:

Astronomy

Mar. 27, 2014 Rise Set
Actual Time 7:22 AM CDT 7:45 PM CDT
Civil Twilight 6:56 AM CDT 8:10 PM CDT
Nautical Twilight 6:27 AM CDT 8:39 PM CDT
Astronomical Twilight 5:57 AM CDT 9:09 PM CDT
Moon 5:05 AM CDT (3/27) 4:41 PM CDT (3/27)
Length of Visible Light 13h 13m
Length of Day
12h 23m
Waning Crescent, 13% of the Moon is Illuminated
Mar 27
Waning Crescent
Mar 30
New
Apr 7
First Quarter
Apr 15
Full
Apr 22
Last Quarter

Hourly Weather History & Observations

Time (CDT) Temp. Dew Point Humidity Pressure Visibility Wind Dir Wind Speed Gust Speed Precip Events Conditions
12:15 AM 57.7 °F 51.8 °F 81% 29.83 in 10.0 mi SSE 15.0 mph 23.0 mph N/A   Overcast
12:35 AM 57.7 °F 51.8 °F 81% 29.82 in 10.0 mi South 12.7 mph 21.9 mph N/A   Overcast
1:15 AM 58.3 °F 52.3 °F 81% 29.82 in 10.0 mi South 12.7 mph 24.2 mph N/A   Mostly Cloudy
1:35 AM 58.3 °F 52.7 °F 82% 29.81 in 10.0 mi SSE 11.5 mph 23.0 mph N/A   Overcast
1:55 AM 58.5 °F 52.9 °F 82% 29.80 in 10.0 mi South 12.7 mph 20.7 mph N/A   Overcast
2:15 AM 58.6 °F 53.1 °F 82% 29.80 in 10.0 mi South 15.0 mph 28.8 mph N/A   Overcast
2:35 AM 59.0 °F 53.6 °F 82% 29.79 in 10.0 mi South 15.0 mph 23.0 mph N/A   Overcast
2:55 AM 58.6 °F 53.6 °F 83% 29.78 in 10.0 mi South 15.0 mph 24.2 mph N/A   Overcast
3:15 AM 58.6 °F 53.8 °F 84% 29.78 in 10.0 mi SSE 13.8 mph 20.7 mph N/A   Overcast
3:35 AM 58.6 °F 54.0 °F 84% 29.78 in 10.0 mi South 10.4 mph 18.4 mph N/A   Overcast
3:55 AM 58.5 °F 54.1 °F 86% 29.77 in 10.0 mi South 11.5 mph 20.7 mph N/A   Overcast
4:15 AM 58.1 °F 54.0 °F 86% 29.77 in 10.0 mi South 15.0 mph 19.6 mph N/A   Overcast
4:35 AM 58.1 °F 54.5 °F 88% 29.76 in 10.0 mi SSE 11.5 mph 19.6 mph N/A   Overcast
4:55 AM 58.1 °F 54.5 °F 88% 29.76 in 10.0 mi SSE 10.4 mph 16.1 mph N/A   Overcast
5:15 AM 58.1 °F 54.9 °F 89% 29.76 in 10.0 mi South 9.2 mph 16.1 mph N/A   Overcast
5:35 AM 58.1 °F 55.0 °F 90% 29.75 in 10.0 mi South 9.2 mph 18.4 mph N/A   Overcast
5:55 AM 58.1 °F 55.4 °F 91% 29.75 in 10.0 mi South 11.5 mph 17.3 mph N/A   Overcast
6:15 AM 58.1 °F 55.6 °F 91% 29.75 in 10.0 mi SSE 13.8 mph 17.3 mph N/A   Overcast
6:35 AM 58.1 °F 55.9 °F 93% 29.75 in 10.0 mi South 10.4 mph 19.6 mph N/A   Light Drizzle
6:55 AM 57.2 °F 55.4 °F 94% 29.75 in 7.0 mi South 11.5 mph - N/A   Drizzle
7:55 AM 57.2 °F 57.2 °F 100% 29.75 in 5.0 mi South 11.5 mph - N/A   Drizzle
8:55 AM 59.0 °F 57.2 °F 94% 29.73 in 10.0 mi SSE 13.8 mph 18.4 mph N/A   Overcast
9:55 AM 60.8 °F 59.0 °F 94% 29.76 in 10.0 mi South 18.4 mph 21.9 mph N/A   Overcast
10:55 AM 62.6 °F 60.8 °F 94% 29.75 in 10.0 mi SSW 13.8 mph 17.3 mph N/A   Overcast
11:55 AM 62.6 °F 60.8 °F 94% 29.72 in 10.0 mi SSW 18.4 mph 28.8 mph N/A   Mostly Cloudy
12:55 PM 69.8 °F 62.6 °F 78% 29.71 in 10.0 mi SSW 15.0 mph 21.9 mph N/A   Unknown
1:55 PM 73.4 °F 62.6 °F 69% 29.67 in 10.0 mi South 19.6 mph 27.6 mph N/A   Scattered Clouds
2:55 PM 78.8 °F 62.6 °F 57% 29.64 in 10.0 mi SSW 17.3 mph 25.3 mph N/A   Clear
3:55 PM 78.8 °F 62.6 °F 57% 29.63 in 10.0 mi SW 23.0 mph 31.1 mph N/A   Clear
4:55 PM 82.4 °F 44.6 °F 26% 29.63 in 10.0 mi SW 20.7 mph 29.9 mph N/A   Clear
5:55 PM 82.4 °F 42.8 °F 25% 29.63 in 10.0 mi WSW 20.7 mph 31.1 mph N/A   Clear
6:55 PM 80.6 °F 42.8 °F 26% 29.64 in 10.0 mi SW 17.3 mph 23.0 mph N/A   Clear
7:55 PM 75.2 °F 42.8 °F 31% 29.66 in 10.0 mi SSW 6.9 mph - N/A   Clear
8:55 PM 64.4 °F 44.6 °F 49% 29.68 in 10.0 mi Calm Calm - N/A   Clear
10:15 PM 56.7 °F 47.8 °F 72% 29.71 in 10.0 mi Calm Calm - N/A   Clear
10:35 PM 55.8 °F 46.9 °F 72% 29.72 in 10.0 mi Calm Calm - N/A   Clear
10:55 PM 55.4 °F 46.4 °F 72% 29.73 in 10.0 mi ESE 4.6 mph - N/A   Clear
11:15 PM 53.4 °F 46.6 °F 78% 29.73 in 10.0 mi Calm Calm - N/A   Clear
11:35 PM 57.4 °F 46.6 °F 67% 29.74 in 10.0 mi Calm Calm - N/A   Clear
11:55 PM 60.8 °F 49.1 °F 65% 29.75 in 10.0 mi North 4.6 mph 11.5 mph N/A   Clear